OBJECT J, 67682

Orbit data source: Space-Track

You're viewing an Uncataloged Satellite

Recently launched and/or uncataloged satellites may have evolving metadata. Metadata may include but not limited to: Owner, Maufacturer, Bus, Motor, and Mission.

OBJECT J, 67682 is a satellite owned by VVKO VKS (CIS) in SSO that was launched on Thu, 05 Feb 2026 UTC via a SOYUZ-2-1B launch vehicle from the Plesetsk Missile And Space Complex (PKMTR). Unknown objects in Earth's orbit typically refer to objects detected orbiting the Earth but have not yet been identified or cataloged. These objects could be anything from previously untracked satellites, spent rocket stages, debris from satellite collisions, or even natural meteoroids temporarily captured by Earth's gravity.

Loading next visibility...
Identifier
67682, 2026-023J
Orbit
SSO
Country
Flag of CISCIS
Related business
Manufacturer
Unknown (RU)
Mission
Spacecraft
Bus & Motor
UNK, Unknown motor
Mass
~500 kg wet, ~500 kg dry
Launch date (UTC)
2026-02-05 (1 month ago)
Launch vehicle
SOYUZ-2-1B
Launch site
Plesetsk Missile And Space Complex (PKMTR)
Object type
Unknown
Shape & HBR
Unknown
Radar Cross Section
RCS unknown

Expand to show TLE details & history
Last TLE update: 15 hours ago

TLE from 15 hours ago
0 OBJECT J
1 67682U 26023J   26071.73741788  .00009579  00000-0  40253-3 0  9990
2 67682  96.6344 146.8463 0024025 104.2882 256.1028 15.23330093  5304
Epoch: 2026-03-12T17:41Z
TLE epoch observation values (Epoch: 2026-03-12T17:41:52.904Z)
Latitude
0.00004°
Longitude
70.99285°
Altitude
502.925 km
Speed
7.611 km/s
True Right ascension
09h 47m 23s
True Declination
0° 00' 00"
Sunlit
Object was in full shadow at epoch
Visualization orbit readout
Latitude
Unknown
Longitude
Unknown
Altitude
Unknown
Speed
Unknown
Apparent Right ascension
Unknown
Apparent Declination
Unknown
Sunlit
N/A
Visualization observer readout
Local Sidereal Time
13:08:30
Azimuth
Unknown
Elevation
Unknown
Doppler factor
Unknown
Orbital elements
Apogee altitude
509.242 km
Perigee altitude
476.227 km
Semi-major axis
6,870.871 km
Eccentricity
0.0024
Inclination
96.6344°
RAAN
146.8463°
Arg. of periapsis
104.2882°
True anomaly
255.83575°
Mean anomaly
256.1028°
Eccentric anomaly
255.96925°
Mean motion
3.81088 °/min
Orbital period
94.47 mins
BSTAR
0.00040253
Loading maneuver chart data...
Computing Atmospheric mass density...
Loading historical data...
Loading historical data...
Loading historical data...
Loading historical data...
Loading historical data...
Loading historical data...
Loading historical data...

Documentation

Showing up to 5 results
|